Terminal Aerodrome Forecast
Issued by NWS

Home | Current Version | Previous Version | Text Only | Print | Product List | Glossary On
Versions: 1 2 3 4 5 6 7 8 9 10 11 12 13 14
000
FTUS43 KUNR 011100
TAFGCC
TAF
KGCC 011120Z 0112/0212 35013KT P6SM -SN OVC012
     FM011400 34011KT P6SM OVC015
     FM011700 31008KT P6SM SKC
     FM012100 23009KT P6SM SKC
     FM020000 19008KT P6SM SCT250
     FM020800 23008KT P6SM OVC040=

USA.gov is the U.S. government's official web portal to all federal, state and local government web resources and services.